This is the latest recevied weather packets stored in our database for station/object KC4JES. If no packets are shown the sender has not sent any weather packets the latest 10 day(s).
| Time | Temp. | Humidity | Pressure | Rain* | Wind** | Luminosity | Snow |
|---|---|---|---|---|---|---|---|
| 1777642361 | 23.33° C | 91% | 1013 hPa | 0 mm | - | 138 W/m² | - |
| 1777642057 | 22.78° C | 92% | 1012.9 hPa | 0 mm | - | 151 W/m² | - |
| 1777641754 | 22.78° C | 93% | 1012.4 hPa | 0 mm | - | 147 W/m² | - |
| 1777641454 | 22.22° C | 93% | 1012.3 hPa | 0 mm | - | 120 W/m² | - |
| 1777641150 | 22.22° C | 94% | 1012.5 hPa | 0 mm | - | 122 W/m² | - |
| 1777640846 | 21.67° C | 96% | 1012.5 hPa | 0 mm | - | 123 W/m² | - |
| 1777640543 | 21.67° C | 97% | 1012.8 hPa | 0 mm | - | 99 W/m² | - |
| 1777640240 | 21.11° C | 97% | 1012.4 hPa | 0 mm | - | 56 W/m² | - |
| 1777639936 | 21.11° C | 98% | 1012.7 hPa | 0 mm | - | 51 W/m² | - |
| 1777639633 | 21.11° C | 98% | 1012.4 hPa | 0 mm | - | 70 W/m² | - |
| 1777639330 | 20.56° C | 98% | 1012.5 hPa | 0 mm | - | 80 W/m² | - |
| 1777639026 | 20.56° C | 98% | 1012.4 hPa | 0 mm | - | 70 W/m² | - |
| 1777638723 | 20.56° C | 99% | 1012.5 hPa | 0 mm | - | 70 W/m² | - |
| 1777638419 | 20.56° C | 99% | 1012.4 hPa | 0 mm | - | 64 W/m² | - |
| 1777638115 | 20.56° C | 99% | 1012.1 hPa | 0 mm | - | 62 W/m² | - |
| 1777637812 | 20.56° C | 99% | 1012.1 hPa | 0 mm | - | 62 W/m² | - |
| 1777637508 | 20° C | 99% | 1011.9 hPa | 0 mm | - | 62 W/m² | - |
| 1777637206 | 20° C | 99% | 1012 hPa | 0 mm | - | 58 W/m² | - |
| 1777636903 | 20° C | 99% | 1012 hPa | 0 mm | - | 53 W/m² | - |
| 1777636598 | 20° C | 99% | 1011.8 hPa | 0 mm | - | 42 W/m² | - |
| 1777636295 | 20° C | 99% | 1011.7 hPa | 0 mm | - | 38 W/m² | - |
| 1777635990 | 20° C | 99% | 1012 hPa | 0 mm | - | 36 W/m² | - |
| 1777635686 | 20° C | 99% | 1011.8 hPa | 0 mm | - | 32 W/m² | - |
| 1777635382 | 20° C | 99% | 1011.7 hPa | 0 mm | - | 25 W/m² | - |
| 1777635079 | 20° C | 99% | 1011.8 hPa | 0 mm | - | 19 W/m² | - |
* Rain latest hour (hover to see other rain measurements)
** Current wind speed in m/s (hover to see current wind gust speed)